{"data":{"norad_id":61011,"epoch":"2026-05-25T04:20:51.546624Z","epoch_age_seconds":59698,"freshness":"FRESH","line1":"1 61011U 24159A   26145.18115216  .00001593  00000+0  21567-3 0  9994","line2":"2 61011  49.9991 189.7854 0002355 165.4445 194.6562 14.84107349 93262","mean_motion":14.84107349,"eccentricity":0.0002355,"inclination_deg":49.9991,"raan_deg":189.7854,"arg_perigee_deg":165.4445,"mean_anomaly_deg":194.6562,"bstar":0.00021567,"rev_number":9326,"period_min":97.028021656943,"perigee_km":614.74192923898,"apogee_km":618.03635105098,"semimajor_km":6994.526140145,"source":"CELESTRAK","updated_at":"2026-05-25T13:38:02.275657Z"}}